Location: Radomski Observatory
(40.2854°N, 79.5145°W)
Time: 23:01:30
(UTC-04:00)

Amateur Radio Satellites - All Passes

Search period start: 20 October 2017 22:31
Search period end: 21 October 2017 22:31
Location: Radomski Observatory, 40.2854°N, 79.5145°W

Satellite Date Start Highest point End Downlink Frequencies (MHz)
Time Altitude Azimuth
YUBILEINY 20 Oct 22:33:24 22:41:19 40° 274° (W) 22:49:16 435.215
EO-88 20 Oct 22:37:22 22:41:00 74° 258° (WSW) 22:44:40 145.990 - 145.960
UNISAT 6 20 Oct 22:42:40 22:46:59 38° 97° (E) 22:51:11 437.425
STRAND 1 20 Oct 22:44:38 22:45:20 10° 302° (WNW) 22:46:03 437.568
FO-29 20 Oct 22:45:55 22:52:46 65° 287° (WNW) 23:00:18 435.910
Max Valier Satellite 20 Oct 22:48:20 22:51:48 37° 262° (W) 22:55:18 145.860
RS-15 20 Oct 22:54:12 22:57:40 12° 93° (E) 23:01:07 29.354- 29.394
TIGRISAT 20 Oct 22:57:14 23:01:44 51° 99° (E) 23:06:06 435.000
AO-85 20 Oct 22:59:16 23:03:51 72° 240° (WSW) 23:08:48 145.980
BEESAT 2 20 Oct 23:02:47 23:06:34 39° 244° (WSW) 23:10:17 435.950
LO-87 20 Oct 23:25:38 23:29:06 48° 74° (ENE) 23:32:36 145.935 - 145.965
PRISM 20 Oct 23:40:00 23:44:08 69° 102° (ESE) 23:48:15 437.425
VELOX 1 20 Oct 23:53:22 23:55:20 13° 63° (ENE) 23:57:18 145.980
QB50P2 21 Oct 00:01:12 00:02:42 12° 90° (E) 00:04:12 145.880/145.840
ESTCUBE 1 21 Oct 00:03:00 00:07:30 86° 259° (W) 00:12:01 437.505/2401.250
DUCHIFAT 1 21 Oct 00:14:36 00:15:54 11° 90° (E) 00:17:11 145.980
UNISAT 6 21 Oct 00:20:00 00:23:23 21° 294° (WNW) 00:26:44 437.425
AIST 2D 21 Oct 00:29:53 00:33:21 71° 100° (E) 00:36:48 435.315
FO-29 21 Oct 00:34:09 00:36:43 12° 304° (NW) 00:39:21 435.910
TIGRISAT 21 Oct 00:35:07 00:37:57 16° 296° (WNW) 00:40:44 435.000
SPROUT 21 Oct 00:38:12 00:42:22 54° 74° (ENE) 00:46:35 437.525
RS-15 21 Oct 00:55:31 01:07:27 62° 113° (ESE) 01:19:26 29.354- 29.394
DX 1 21 Oct 00:57:20 00:59:54 16° 64° (ENE) 01:02:29 434.975-435.025
EO-79 21 Oct 01:09:21 01:13:37 65° 101° (E) 01:17:49 145.935-145.965
POLYITAN 1 21 Oct 01:14:14 01:18:31 74° 102° (ESE) 01:22:44 437.675
PRISM 21 Oct 01:18:07 01:18:49 10° 298° (WNW) 01:19:30 437.425
UKube-1 21 Oct 01:19:59 01:22:47 17° 65° (ENE) 01:25:36 .
VELOX 1 21 Oct 01:26:55 01:31:14 61° 258° (WSW) 01:35:36 145.980
50 SAT 21 Oct 01:33:55 01:36:58 39° 73° (ENE) 01:40:03 437.505
QB50P2 21 Oct 01:34:38 01:38:50 57° 286° (WNW) 01:42:59 145.880/145.840
NANOSAT C BR1 21 Oct 01:37:16 01:41:30 67° 286° (WNW) 01:45:41 145.865
Gurwin Techsat 1B 21 Oct 01:44:06 01:45:20 11° 88° (E) 01:46:33 435.225
DUCHIFAT 1 21 Oct 01:47:44 01:51:55 58° 286° (WNW) 01:56:03 145.980
BUGSAT 1 21 Oct 01:53:23 01:57:21 38° 98° (E) 02:01:14 437.445
SPROUT 21 Oct 02:16:46 02:18:35 12° 269° (W) 02:20:23 437.525
DX 1 21 Oct 02:31:30 02:35:40 48° 260° (W) 02:39:53 434.975-435.025
ITUPSAT 1 21 Oct 02:39:37 02:42:45 18° 63° (ENE) 02:45:54 437.325
M-CUBED/EXP-1 PRIME 21 Oct 02:44:01 02:47:23 36° 104° (ESE) 02:50:58 437.505
Oscar 19 21 Oct 02:44:24 02:49:30 63° 102° (ESE) 02:54:33 437.125/150
EO-79 21 Oct 02:47:21 02:48:47 12° 297° (WNW) 02:50:13 145.935-145.965
POLYITAN 1 21 Oct 02:53:07 02:53:38 10° 298° (WNW) 02:54:10 437.675
BEESAT 21 Oct 02:53:54 02:57:43 24° 66° (ENE) 03:01:33 436.000
UKube-1 21 Oct 02:54:24 02:58:27 42° 261° (W) 03:02:33 .
NO-84 21 Oct 03:00:26 03:04:19 35° 129° (SE) 03:08:13 435.350 FM
RS-15 21 Oct 03:08:46 03:20:28 46° 316° (NW) 03:32:08 29.354- 29.394
Gurwin Techsat 1B 21 Oct 03:20:34 03:25:55 87° 285° (WNW) 03:31:14 435.225
BUGSAT 1 21 Oct 03:29:30 03:32:22 18° 294° (WNW) 03:35:13 437.445
MOZHAYETS 4 21 Oct 03:39:58 03:44:36 76° 75° (ENE) 03:49:14
CUBESAT XI-V 21 Oct 03:54:00 03:57:38 23° 67° (ENE) 04:01:16 437.345
AO-7 21 Oct 04:06:38 04:14:10 37° 98° (E) 04:21:38 .
ITUPSAT 1 21 Oct 04:15:27 04:20:08 52° 260° (W) 04:24:51 437.325
M-CUBED/EXP-1 PRIME 21 Oct 04:19:26 04:21:35 15° 297° (WNW) 04:23:50 437.505
Oscar 19 21 Oct 04:25:11 04:28:16 16° 298° (WNW) 04:31:20 437.125/150
BEESAT 21 Oct 04:30:54 04:35:17 35° 262° (W) 04:39:41 436.000
NO-84 21 Oct 04:37:44 04:41:45 37° 325° (NW) 04:45:41 435.350 FM
ITAMSAT 1 21 Oct 04:57:34 05:02:48 70° 103° (ESE) 05:08:01 435.822/435.867
KKS-1 21 Oct 05:02:41 05:06:43 35° 70° (ENE) 05:10:46 437.445
Gurwin Techsat 1B 21 Oct 05:03:13 05:05:01 12° 302° (WNW) 05:06:50 435.225
DOVE 4 21 Oct 05:27:38 05:31:21 20° 93° (E) 05:35:10 437.250
RS-15 21 Oct 05:28:18 05:37:16 22° 348° (NNW) 05:46:04 29.354- 29.394
CUBESAT XI-V 21 Oct 05:30:37 05:34:49 34° 263° (W) 05:39:01 437.345
STARS 21 Oct 05:33:35 05:37:25 31° 69° (ENE) 05:41:18 437.465
AO-7 21 Oct 05:59:10 06:07:04 50° 296° (WNW) 06:14:57 .
SO-50 21 Oct 06:13:03 06:15:49 16° 110° (ESE) 06:18:36 436.795
NO-84 21 Oct 06:18:09 06:20:08 13° 345° (NNW) 06:22:06 435.350 FM
O/OREOS (USA 219) 21 Oct 06:18:12 06:22:09 28° 60° (ENE) 06:26:05 437.305
XW-2B 21 Oct 06:21:52 06:23:14 12° 91° (E) 06:24:36 145.730 - 145.750
ITAMSAT 1 21 Oct 06:38:40 06:41:39 15° 299° (WNW) 06:44:37 435.822/435.867
KKS-1 21 Oct 06:40:02 06:43:20 20° 266° (W) 06:46:40 437.445
STRAND 1 21 Oct 06:40:18 06:43:34 17° 62° (ENE) 06:46:51 437.568
XW-2C 21 Oct 06:43:44 06:46:44 23° 95° (E) 06:49:44 145.795 - 145.815
HO-68 21 Oct 07:02:03 07:06:08 16° 90° (E) 07:10:12 435.675
DOVE 4 21 Oct 07:04:22 07:09:10 47° 287° (WNW) 07:14:09 437.250
STARS 21 Oct 07:10:15 07:13:45 23° 265° (W) 07:17:17 437.465
CUTE-I 21 Oct 07:12:02 07:17:07 42° 98° (E) 07:22:11 437.470
KAITUO 1B 21 Oct 07:24:13 07:27:50 53° 99° (E) 07:31:26 145.475/437.950
XW-2F 21 Oct 07:27:22 07:31:06 79° 103° (ESE) 07:34:48 145.980 - 146.000
LilacSat-2 21 Oct 07:34:18 07:38:03 72° 284° (WNW) 07:41:47 437.200
NUDT-PHONESAT 21 Oct 07:37:03 07:40:42 77° 102° (ESE) 07:44:20 437.300
XW-2D 21 Oct 07:40:27 07:44:10 61° 285° (WNW) 07:47:50 145.860 - 145.880
RS-15 21 Oct 07:45:45 07:55:36 27° 25° (NNE) 08:05:01 29.354- 29.394
CUTE 1.7 + AOD 2 21 Oct 07:49:44 07:53:25 29° 96° (E) 07:57:06 437.475
SO-50 21 Oct 07:51:29 07:55:51 52° 307° (NW) 08:00:14 436.795
XW-2B 21 Oct 07:54:04 07:57:37 42° 287° (WNW) 08:01:10 145.730 - 145.750
SEEDS 21 Oct 07:55:38 07:58:47 21° 94° (E) 08:01:56 437.485
AO-7 21 Oct 07:55:54 07:57:50 11° 317° (NW) 07:59:48 .
O/OREOS (USA 219) 21 Oct 07:57:33 08:01:30 29° 257° (WSW) 08:05:26 437.305
NO-84 21 Oct 07:58:20 07:59:06 10° 6° (N) 07:59:52 435.350 FM
UWE-3 21 Oct 08:00:29 08:02:28 13° 89° (E) 08:04:26 435.000/436.395/437.385
STRAND 1 21 Oct 08:17:11 08:22:14 60° 259° (W) 08:27:21 437.568
AAUSAT CUBESAT 2 21 Oct 08:17:29 08:19:59 16° 92° (E) 08:22:29 437.432
XW-2C 21 Oct 08:17:53 08:20:49 22° 290° (WNW) 08:23:45 145.795 - 145.815
PCSat 21 Oct 08:34:21 08:39:39 59° 114° (ESE) 08:45:00 145.827
HO-68 21 Oct 08:47:26 08:54:41 88° 289° (WNW) 09:01:53 435.675
AO-73 21 Oct 08:48:36 08:51:47 20° 93° (E) 08:54:53 145.935
CUTE-I 21 Oct 08:52:35 08:56:54 25° 295° (WNW) 09:01:14 437.470
XW-2A 21 Oct 08:57:10 09:00:30 65° 100° (E) 09:03:48 145.665 - 145.685
CUBEBUG 2 21 Oct 08:58:31 09:03:11 81° 282° (WNW) 09:07:40 437.445
FO-29 21 Oct 08:58:38 09:03:41 51° 70° (ENE) 09:09:06 435.910
KAITUO 1B 21 Oct 09:01:01 09:01:20 10° 296° (WNW) 09:01:38 145.475/437.950
ZACube-1 21 Oct 09:10:31 09:14:38 39° 97° (E) 09:18:37 437.345
CUTE 1.7 + AOD 2 21 Oct 09:25:49 09:29:05 22° 292° (WNW) 09:32:21 437.475
SEEDS 21 Oct 09:30:50 09:34:30 30° 289° (WNW) 09:38:08 437.485
nSIGHT-1 21 Oct 09:31:35 09:34:10 23° 133° (SE) 09:36:45 .
NO-84 21 Oct 09:34:37 09:37:47 22° 27° (NNE) 09:40:45 435.350 FM
UWE-3 21 Oct 09:34:53 09:39:18 56° 286° (WNW) 09:43:34 435.000/436.395/437.385
YUBILEINY 21 Oct 09:36:26 09:44:43 52° 89° (E) 09:53:04 435.215
UNISAT 6 21 Oct 09:40:33 09:44:42 33° 69° (ENE) 09:48:52 437.425
Oscar 11 21 Oct 09:45:30 09:49:45 59° 100° (E) 09:53:59 .
AAUSAT CUBESAT 2 21 Oct 09:51:44 09:55:35 39° 288° (WNW) 09:59:26 437.432
TIGRISAT 21 Oct 09:54:48 09:59:10 42° 71° (ENE) 10:03:36 435.000
RS-15 21 Oct 09:58:49 10:10:47 70° 54° (NE) 10:22:03 29.354- 29.394
ISS 21 Oct 10:06:09 10:09:17 45° 138° (SE) 10:12:25 437.550
Max Valier Satellite 21 Oct 10:19:04 10:21:42 19° 94° (E) 10:24:19 145.860
PCSat 21 Oct 10:19:16 10:23:26 22° 313° (NW) 10:27:39 145.827
AO-73 21 Oct 10:24:10 10:28:06 34° 289° (WNW) 10:31:55 145.935
PRISM 21 Oct 10:28:28 10:32:17 43° 72° (ENE) 10:36:09 437.425
HO-68 21 Oct 10:36:58 10:41:24 18° 305° (NW) 10:45:50 435.675
FO-29 21 Oct 10:45:42 10:49:15 18° 270° (W) 10:52:56 435.910
ZACube-1 21 Oct 10:47:37 10:50:34 18° 294° (WNW) 10:53:29 437.345
AIST 2D 21 Oct 11:03:49 11:06:35 22° 70° (ENE) 11:09:21 435.315
nSIGHT-1 21 Oct 11:07:18 11:10:19 37° 330° (NNW) 11:13:19 .
DELFI C3 21 Oct 11:10:26 11:14:22 65° 284° (WNW) 11:18:18 145.870
NO-84 21 Oct 11:11:44 11:15:26 55° 228° (SW) 11:18:50 435.350 FM
UNISAT 6 21 Oct 11:17:35 11:21:23 25° 266° (W) 11:25:14 437.425
Oscar 11 21 Oct 11:23:31 11:25:22 13° 297° (WNW) 11:27:13 .
BEESAT 3 21 Oct 11:31:05 11:33:33 16° 110° (ESE) 11:36:02 437.485
TIGRISAT 21 Oct 11:32:41 11:36:00 19° 267° (W) 11:39:22 435.000
YUBILEINY 21 Oct 11:34:08 11:41:47 34° 289° (WNW) 11:49:32 435.215
EO-88 21 Oct 11:39:51 11:43:23 50° 285° (WNW) 11:46:53 145.990 - 145.960
ISS 21 Oct 11:43:07 11:45:52 25° 335° (NNW) 11:48:39 437.550
Max Valier Satellite 21 Oct 11:52:26 11:55:30 25° 290° (WNW) 11:58:33 145.860
ESTCUBE 1 21 Oct 11:56:38 11:59:58 20° 94° (E) 12:03:18 437.505/2401.250
EO-79 21 Oct 12:00:50 12:04:52 44° 73° (ENE) 12:08:56 145.935-145.965
PRISM 21 Oct 12:05:39 12:07:46 14° 268° (W) 12:09:54 437.425
POLYITAN 1 21 Oct 12:05:46 12:09:53 50° 73° (ENE) 12:14:03 437.675
RS-15 21 Oct 12:12:22 12:22:12 33° 256° (WSW) 12:31:40 29.354- 29.394
Oscar 19 21 Oct 12:25:42 12:27:14 11° 59° (ENE) 12:28:45 437.125/150
LO-87 21 Oct 12:25:54 12:29:31 67° 101° (E) 12:33:07 145.935 - 145.965
QB50P2 21 Oct 12:25:59 12:30:15 85° 255° (WSW) 12:34:34 145.880/145.840
NANOSAT C BR1 21 Oct 12:28:06 12:32:21 81° 76° (ENE) 12:36:38 145.865
AIST 2D 21 Oct 12:37:04 12:39:41 19° 265° (W) 12:42:18 435.315
DUCHIFAT 1 21 Oct 12:38:14 12:42:28 89° 273° (W) 12:46:45 145.980
BUGSAT 1 21 Oct 12:42:31 12:45:58 25° 68° (ENE) 12:49:27 437.445
nSIGHT-1 21 Oct 12:45:44 12:47:16 13° 349° (N) 12:48:50 .
BEESAT 2 21 Oct 12:52:51 12:56:31 36° 115° (ESE) 13:00:15 435.950
Gurwin Techsat 1B 21 Oct 13:03:24 13:07:00 19° 62° (ENE) 13:10:36 435.225
BEESAT 3 21 Oct 13:06:54 13:10:44 44° 306° (NW) 13:14:36 437.485
AO-85 21 Oct 13:13:51 13:17:26 37° 116° (ESE) 13:21:07 145.980
VELOX 1 21 Oct 13:17:37 13:21:17 25° 95° (E) 13:24:58 145.980
AO-7 21 Oct 13:20:21 13:22:00 11° 42° (NE) 13:23:38 .
ISS 21 Oct 13:21:58 13:23:14 12° 355° (N) 13:24:30 437.550
M-CUBED/EXP-1 PRIME 21 Oct 13:29:47 13:32:56 38° 68° (ENE) 13:36:01 437.505
ESTCUBE 1 21 Oct 13:32:46 13:36:51 36° 289° (WNW) 13:40:57 437.505/2401.250
EO-79 21 Oct 13:38:18 13:40:49 15° 268° (W) 13:43:22 145.935-145.965
POLYITAN 1 21 Oct 13:43:47 13:45:57 14° 269° (W) 13:48:06 437.675
SPROUT 21 Oct 13:59:47 14:04:04 71° 285° (WNW) 14:08:20 437.525
Oscar 19 21 Oct 14:00:34 14:05:45 87° 74° (ENE) 14:10:56 437.125/150
BUGSAT 1 21 Oct 14:17:41 14:21:12 26° 264° (W) 14:24:47 437.445
DX 1 21 Oct 14:20:09 14:23:57 28° 97° (E) 14:27:44 434.975-435.025
nSIGHT-1 21 Oct 14:23:12 14:24:39 12° 10° (N) 14:26:05 .
50 SAT 21 Oct 14:25:10 14:28:17 37° 99° (E) 14:31:22 437.505
BEESAT 2 21 Oct 14:31:12 14:34:21 22° 313° (NW) 14:37:33 435.950
ITAMSAT 1 21 Oct 14:38:59 14:41:24 13° 59° (ENE) 14:43:49 435.822/435.867
Gurwin Techsat 1B 21 Oct 14:41:15 14:46:28 58° 259° (W) 14:51:43 435.225
UKube-1 21 Oct 14:41:42 14:45:33 30° 97° (E) 14:49:22 .
SO-50 21 Oct 14:43:29 14:46:31 17° 42° (NE) 14:49:33 436.795
VELOX 1 21 Oct 14:53:52 14:57:41 29° 291° (WNW) 15:01:31 145.980
AO-85 21 Oct 14:55:05 14:57:58 19° 314° (NW) 15:00:55 145.980
ISS 21 Oct 14:58:44 15:00:47 15° 16° (NNE) 15:02:51 437.550
AO-7 21 Oct 15:04:55 15:12:45 49° 64° (ENE) 15:20:36 .
M-CUBED/EXP-1 PRIME 21 Oct 15:07:10 15:07:33 10° 262° (W) 15:07:55 437.505
MOZHAYETS 4 21 Oct 15:36:28 15:39:36 18° 93° (E) 15:42:43
Oscar 19 21 Oct 15:45:12 15:45:41 10° 271° (W) 15:46:10 437.125/150
DX 1 21 Oct 15:56:26 16:00:01 25° 292° (WNW) 16:03:36 434.975-435.025
nSIGHT-1 21 Oct 15:58:42 16:01:40 33° 29° (NNE) 16:04:37 .
50 SAT 21 Oct 15:59:16 16:00:12 11° 294° (WNW) 16:01:09 437.505
ITAMSAT 1 21 Oct 16:14:57 16:20:09 81° 257° (WSW) 16:25:23 435.822/435.867
ITUPSAT 1 21 Oct 16:16:21 16:20:52 40° 99° (E) 16:25:21 437.325
UKube-1 21 Oct 16:17:59 16:21:24 23° 293° (WNW) 16:24:48 .
SO-50 21 Oct 16:22:50 16:27:26 70° 241° (WSW) 16:32:05 436.795
BEESAT 21 Oct 16:30:53 16:35:36 59° 101° (E) 16:40:17 436.000
DOVE 4 21 Oct 16:33:49 16:36:22 16° 64° (ENE) 16:38:57 437.250
ISS 21 Oct 16:34:32 16:37:47 60° 34° (NE) 16:41:01 437.550
AO-7 21 Oct 16:58:07 17:05:37 37° 262° (W) 17:13:11 .
MOZHAYETS 4 21 Oct 17:12:37 17:16:56 42° 289° (WNW) 17:21:13
PCSat 21 Oct 17:22:44 17:27:54 42° 55° (NE) 17:33:02 145.827
XW-2C 21 Oct 17:26:08 17:27:25 11° 65° (ENE) 17:28:41 145.795 - 145.815
CUBESAT XI-V 21 Oct 17:26:54 17:31:27 59° 100° (E) 17:35:59 437.345
HO-68 21 Oct 17:32:44 17:35:35 13° 51° (NE) 17:38:26 435.675
nSIGHT-1 21 Oct 17:35:07 17:37:52 27° 226° (SW) 17:40:37 .
ITUPSAT 1 21 Oct 17:54:48 17:58:25 22° 295° (WNW) 18:02:01 437.325
KAITUO 1B 21 Oct 18:03:50 18:06:48 23° 70° (ENE) 18:09:46 145.475/437.950
XW-2F 21 Oct 18:07:27 18:10:50 32° 72° (ENE) 18:14:14 145.980 - 146.000
DOVE 4 21 Oct 18:09:38 18:13:38 44° 262° (W) 18:17:49 437.250
BEESAT 21 Oct 18:10:05 18:12:52 16° 298° (WNW) 18:15:38 436.000
ISS 21 Oct 18:12:04 18:13:55 14° 230° (SW) 18:15:45 437.550
LilacSat-2 21 Oct 18:15:11 18:18:52 48° 74° (ENE) 18:22:33 437.200
NUDT-PHONESAT 21 Oct 18:15:26 18:18:42 30° 71° (ENE) 18:21:58 437.300
XW-2D 21 Oct 18:20:34 18:24:16 54° 75° (ENE) 18:27:59 145.860 - 145.880
KKS-1 21 Oct 18:29:49 18:34:20 77° 103° (ESE) 18:38:49 437.445
CUTE-I 21 Oct 18:33:14 18:38:28 65° 73° (ENE) 18:43:46 437.470
XW-2B 21 Oct 18:33:58 18:37:46 78° 75° (ENE) 18:41:33 145.730 - 145.750
CUTE 1.7 + AOD 2 21 Oct 18:42:13 18:45:20 20° 68° (ENE) 18:48:26 437.475
SEEDS 21 Oct 18:47:41 18:49:54 14° 65° (ENE) 18:52:07 437.485
XW-2C 21 Oct 18:57:26 19:01:08 50° 260° (W) 19:04:50 145.795 - 145.815
UWE-3 21 Oct 18:57:33 18:59:07 12° 62° (ENE) 19:00:41 435.000/436.395/437.385
STARS 21 Oct 18:58:46 19:03:11 63° 102° (ESE) 19:07:34 437.465
CUBESAT XI-V 21 Oct 19:05:52 19:08:19 14° 297° (WNW) 19:10:44 437.345
PCSat 21 Oct 19:06:35 19:11:03 27° 252° (WSW) 19:15:29 145.827
AAUSAT CUBESAT 2 21 Oct 19:09:16 19:09:43 10° 63° (ENE) 19:10:10 437.432
HO-68 21 Oct 19:14:53 19:21:57 66° 70° (ENE) 19:29:04 435.675
XW-2A 21 Oct 19:28:09 19:30:39 19° 69° (ENE) 19:33:08 145.665 - 145.685
KAITUO 1B 21 Oct 19:37:45 19:40:41 22° 265° (W) 19:43:38 145.475/437.950
XW-2F 21 Oct 19:42:42 19:45:02 16° 267° (W) 19:47:22 145.980 - 146.000
AO-73 21 Oct 19:43:42 19:46:34 17° 65° (ENE) 19:49:27 145.935
YUBILEINY 21 Oct 19:47:35 19:54:32 25° 67° (ENE) 20:01:25 435.215
BEESAT 3 21 Oct 19:48:31 19:49:31 11° 40° (NE) 19:50:32 437.485
NUDT-PHONESAT 21 Oct 19:50:10 19:52:35 16° 267° (W) 19:55:01 437.300
LilacSat-2 21 Oct 19:52:16 19:53:23 11° 269° (W) 19:54:30 437.200
CUBEBUG 2 21 Oct 19:55:06 19:59:45 77° 77° (ENE) 20:04:32 437.445
ZACube-1 21 Oct 20:05:18 20:09:19 31° 70° (ENE) 20:13:19 437.345
KKS-1 21 Oct 20:09:02 20:10:13 11° 299° (WNW) 20:11:25 437.445
CUTE-I 21 Oct 20:15:57 20:18:58 15° 269° (W) 20:22:00 437.470
CUTE 1.7 + AOD 2 21 Oct 20:17:07 20:20:56 33° 263° (W) 20:24:46 437.475
SEEDS 21 Oct 20:21:07 20:25:09 48° 261° (W) 20:29:12 437.485
STRAND 1 21 Oct 20:28:07 20:33:07 49° 99° (E) 20:38:05 437.568
O/OREOS (USA 219) 21 Oct 20:29:48 20:33:53 33° 104° (ESE) 20:38:00 437.305
UWE-3 21 Oct 20:30:14 20:34:52 78° 258° (WSW) 20:39:35 435.000/436.395/437.385
STARS 21 Oct 20:36:58 20:38:58 13° 298° (WNW) 20:40:58 437.465
Oscar 11 21 Oct 20:39:28 20:43:32 41° 72° (ENE) 20:47:37 .
AAUSAT CUBESAT 2 21 Oct 20:40:30 20:44:34 68° 258° (WSW) 20:48:40 437.432
XW-2A 21 Oct 21:00:32 21:03:13 21° 265° (W) 21:05:55 145.665 - 145.685
HO-68 21 Oct 21:04:46 21:10:10 23° 267° (W) 21:15:37 435.675
BEESAT 2 21 Oct 21:11:00 21:14:08 21° 47° (NE) 21:17:13 435.950
AO-73 21 Oct 21:17:57 21:22:23 49° 261° (W) 21:26:50 145.935
BEESAT 3 21 Oct 21:23:44 21:27:42 87° 59° (ENE) 21:31:35 437.485
CUBEBUG 2 21 Oct 21:36:09 21:36:54 10° 272° (W) 21:37:39 437.445
ZACube-1 21 Oct 21:41:45 21:45:32 25° 265° (W) 21:49:21 437.345
YUBILEINY 21 Oct 21:43:21 21:52:06 71° 267° (W) 22:00:51 435.215
AO-85 21 Oct 21:44:19 21:48:28 34° 51° (NE) 21:52:54 145.980
FO-29 21 Oct 21:50:54 21:57:49 56° 100° (E) 22:05:21 435.910
DELFI C3 21 Oct 21:54:38 21:58:28 61° 75° (ENE) 22:02:20 145.870
STRAND 1 21 Oct 22:08:09 22:11:56 21° 296° (WNW) 22:15:40 437.568
O/OREOS (USA 219) 21 Oct 22:09:37 22:13:20 24° 302° (WNW) 22:17:05 437.305
EO-88 21 Oct 22:16:19 22:19:53 56° 75° (ENE) 22:23:28 145.990 - 145.960
Oscar 11 21 Oct 22:17:04 22:19:50 17° 268° (W) 22:22:37 .
